This is the latest recevied weather packets stored in our database for station/object AA4XD. If no packets are shown the sender has not sent any weather packets the latest 1 day(s).
| Time | Temp. | Humidity | Pressure | Rain* | Wind** | Luminosity | Snow |
|---|---|---|---|---|---|---|---|
| 1778038391 | 19.44° C | 79% | 1015.7 hPa | 0 mm | - | 0 W/m² | - |
| 1778038088 | 19.44° C | 79% | 1015.6 hPa | 0 mm | - | 0 W/m² | - |
| 1778037785 | 20° C | 78% | 1015.4 hPa | 0 mm | - | 0 W/m² | - |
| 1778037178 | 20° C | 80% | 1015.2 hPa | 0 mm | - | 0 W/m² | - |
| 1778036876 | 20° C | 79% | 1015.5 hPa | 0 mm | - | 0 W/m² | - |
| 1778036271 | 20° C | 79% | 1015.3 hPa | 0 mm | - | 0 W/m² | - |
| 1778035967 | 20° C | 79% | 1015.2 hPa | 0 mm | - | 0 W/m² | - |
| 1778035664 | 20° C | 80% | 1015 hPa | 0 mm | - | 0 W/m² | - |
| 1778035361 | 20° C | 80% | 1015.1 hPa | 0 mm | - | 0 W/m² | - |
| 1778035057 | 20° C | 78% | 1014.9 hPa | 0 mm | - | 0 W/m² | - |
| 1778034754 | 20° C | 77% | 1014.9 hPa | 0 mm | - | 0 W/m² | - |
| 1778034451 | 20° C | 75% | 1014.6 hPa | 0 mm | - | 0 W/m² | - |
| 1778034149 | 20° C | 75% | 1014.5 hPa | 0 mm | - | 0 W/m² | - |
| 1778033847 | 20.56° C | 74% | 1014.5 hPa | 0 mm | - | 0 W/m² | - |
| 1778033543 | 20.56° C | 73% | 1014.5 hPa | 0 mm | - | 0 W/m² | - |
| 1778033240 | 20.56° C | 72% | 1014.4 hPa | 0 mm | - | 0 W/m² | - |
| 1778032333 | 20.56° C | 71% | 1014.3 hPa | 0 mm | - | 0 W/m² | - |
| 1778032030 | 20.56° C | 71% | 1014 hPa | 0 mm | - | 0 W/m² | - |
| 1778031726 | 20.56° C | 71% | 1014.1 hPa | 0 mm | - | 0 W/m² | - |
| 1778031121 | 21.11° C | 69% | 1014 hPa | 0 mm | - | 0 W/m² | - |
| 1778030211 | 21.67° C | 67% | 1014 hPa | 0 mm | - | 0 W/m² | - |
| 1778029907 | 21.67° C | 67% | 1013.9 hPa | 0 mm | - | 0 W/m² | - |
| 1778029606 | 21.67° C | 67% | 1014 hPa | 0 mm | - | 0 W/m² | - |
| 1778028090 | 22.78° C | 63% | 1014.2 hPa | 0 mm | - | 0 W/m² | - |
| 1778027786 | 22.78° C | 62% | 1013.9 hPa | 0 mm | - | 0 W/m² | - |
* Rain latest hour (hover to see other rain measurements)
** Current wind speed in m/s (hover to see current wind gust speed)